Weather History for K05U - November, 2012

Change the Weather History Date:

Wednesday, November 28, 2012

  Actual Average Record
Temperature  
Mean Temperature 44 °F -  
Max Temperature 55 °F - - ()
Min Temperature 32 °F - - ()
Degree Days  
Heating Degree Days 22    
Moisture  
Dew Point 22 °F    
Average Humidity 44    
Maximum Humidity 64    
Minimum Humidity 26    
Precipitation  
Precipitation 0.00 in - - ()
Sea Level Pressure  
Sea Level Pressure 30.11 in    
Wind  
Wind Speed 9 mph ()    
Max Wind Speed 24 mph    
Max Gust Speed 30 mph    
Visibility 10.0 miles    
Events      
T = Trace of Precipitation, MM = Missing Value Source: Averaged Metar Reports

Daily Weather History Graph

Daily Weather History Graph

Search for Another Location

Airport or City:

Trip Planner

Search our weather history database for the weather conditions in past years. The results will help you decide how hot, cold, wet, or windy it might be!

Date:

Astronomy

Nov. 28, 2012 Rise Set
Actual Time 6:43 AM PST 4:21 PM PST
Civil Twilight 6:13 AM PST 4:50 PM PST
Nautical Twilight 5:40 AM PST 5:24 PM PST
Astronomical Twilight 5:07 AM PST 5:56 PM PST
Moon 4:39 PM PST (11/28) 6:44 AM PST (11/28)
Length of Visible Light 10h 37m
Length of Day
9h 38m
Full, 100% of the Moon is Illuminated
Nov 28
Full
Dec 6
Last Quarter
Dec 13
New
Dec 19
First Quarter
Dec 28
Full

Hourly Weather History & Observations

Time (PST) Temp. Windchill Dew Point Humidity Pressure Visibility Wind Dir Wind Speed Gust Speed Precip Events Conditions
12:15 AM 37.4 °F 32.1 °F 17.6 °F 45% 30.21 in 10.0 mi South 6.9 mph - N/A   Clear
12:35 AM 33.8 °F - 17.6 °F 52% 30.21 in 10.0 mi Calm Calm - N/A   Clear
12:55 AM 33.8 °F - 17.6 °F 52% 30.22 in 10.0 mi Calm Calm - N/A   Clear
1:15 AM 35.6 °F 31.7 °F 17.6 °F 48% 30.21 in 10.0 mi ESE 4.6 mph - N/A   Clear
1:35 AM 37.4 °F 32.1 °F 19.4 °F 48% 30.21 in 10.0 mi SSE 6.9 mph - N/A   Clear
1:55 AM 37.4 °F 33.8 °F 19.4 °F 48% 30.20 in 10.0 mi SSE 4.6 mph - N/A   Clear
2:15 AM 35.6 °F 29.9 °F 19.4 °F 52% 30.20 in 10.0 mi South 6.9 mph - N/A   Clear
2:35 AM 35.6 °F 29.9 °F 19.4 °F 52% 30.19 in 10.0 mi SSE 6.9 mph - N/A   Clear
2:55 AM 37.4 °F 33.8 °F 19.4 °F 48% 30.19 in 10.0 mi WSW 4.6 mph - N/A   Clear
3:15 AM 35.6 °F 31.7 °F 19.4 °F 52% 30.18 in 10.0 mi SW 4.6 mph - N/A   Clear
3:35 AM 35.6 °F 29.2 °F 19.4 °F 52% 30.18 in 10.0 mi South 8.1 mph - N/A   Clear
4:15 AM 32.0 °F 25.6 °F 19.4 °F 60% 30.18 in 10.0 mi South 6.9 mph - N/A   Clear
4:35 AM 32.0 °F 25.6 °F 17.6 °F 55% 30.19 in 10.0 mi South 6.9 mph - N/A   Clear
4:55 AM 32.0 °F 24.2 °F 19.4 °F 60% 30.19 in 10.0 mi SE 9.2 mph - N/A   Clear
5:15 AM 35.6 °F 29.9 °F 19.4 °F 52% 30.19 in 10.0 mi SE 6.9 mph - N/A   Clear
5:35 AM 33.8 °F 26.4 °F 19.4 °F 56% 30.18 in 10.0 mi SE 9.2 mph - N/A   Clear
5:55 AM 35.6 °F 28.6 °F 19.4 °F 52% 30.17 in 10.0 mi SSE 9.2 mph - N/A   Clear
6:15 AM 35.6 °F 27.5 °F 21.2 °F 56% 30.15 in 10.0 mi SE 11.5 mph - N/A   Clear
6:35 AM 35.6 °F 28.0 °F 19.4 °F 52% 30.16 in 10.0 mi SSW 10.4 mph - N/A   Clear
6:55 AM 35.6 °F 28.6 °F 19.4 °F 52% 30.16 in 10.0 mi SW 9.2 mph - N/A   Clear
7:15 AM 32.0 °F 24.2 °F 19.4 °F 60% 30.16 in 10.0 mi South 9.2 mph - N/A   Clear
7:35 AM 39.2 °F 31.6 °F 21.2 °F 49% 30.16 in 10.0 mi SSE 12.7 mph - N/A   Clear
7:55 AM 44.6 °F 38.4 °F 21.2 °F 39% 30.16 in 10.0 mi SSE 12.7 mph - N/A   Clear
8:15 AM 46.4 °F 41.9 °F 23.0 °F 40% 30.17 in 10.0 mi SSE 9.2 mph - N/A   Clear
8:35 AM 46.4 °F 40.7 °F 21.2 °F 37% 30.17 in 10.0 mi SSE 12.7 mph - N/A   Clear
8:55 AM 48.2 °F - 21.2 °F 34% 30.16 in 10.0 mi SE 12.7 mph - N/A   Clear
9:15 AM 50.0 °F - 23.0 °F 35% 30.15 in 10.0 mi South 18.4 mph - N/A   Clear
9:35 AM 50.0 °F - 23.0 °F 35% 30.15 in 10.0 mi SSE 12.7 mph 23.0 mph N/A   Clear
9:55 AM 50.0 °F - 23.0 °F 35% 30.13 in 10.0 mi SSE 18.4 mph 23.0 mph N/A   Clear
10:15 AM 51.8 °F - 23.0 °F 33% 30.12 in 10.0 mi South 23.0 mph 26.5 mph N/A   Clear
10:55 AM 50.0 °F - 23.0 °F 35% 30.10 in 10.0 mi South 21.9 mph - N/A   Clear
11:15 AM 51.8 °F - 23.0 °F 33% 30.09 in 10.0 mi South 16.1 mph 24.2 mph N/A   Clear
11:35 AM 53.6 °F - 23.0 °F 30% 30.06 in 10.0 mi South 17.3 mph 25.3 mph N/A   Clear
11:55 AM 53.6 °F - 23.0 °F 30% 30.05 in 10.0 mi South 17.3 mph - N/A   Clear
12:15 PM 55.4 °F - 23.0 °F 29% 30.04 in 10.0 mi South 23.0 mph 27.6 mph N/A   Clear
12:35 PM 55.4 °F - 21.2 °F 26% 30.04 in 10.0 mi South 13.8 mph 17.3 mph N/A   Clear
12:55 PM 55.4 °F - 21.2 °F 26% 30.04 in 10.0 mi South 16.1 mph 21.9 mph N/A   Clear
1:15 PM 55.4 °F - 21.2 °F 26% 30.03 in 10.0 mi SSE 20.7 mph 26.5 mph N/A   Clear
1:35 PM 53.6 °F - 21.2 °F 28% 30.01 in 10.0 mi South 17.3 mph 23.0 mph N/A   Clear
1:55 PM 53.6 °F - 21.2 °F 28% 30.01 in 10.0 mi SSE 17.3 mph - N/A   Clear
2:15 PM 53.6 °F - 23.0 °F 30% 30.01 in 10.0 mi SSE 13.8 mph 23.0 mph N/A   Clear
2:35 PM 53.6 °F - 23.0 °F 30% 30.01 in 10.0 mi South 19.6 mph 24.2 mph N/A   Clear
2:55 PM 53.6 °F - 23.0 °F 30% 30.00 in 10.0 mi South 15.0 mph 23.0 mph N/A   Mostly Cloudy
3:15 PM 53.6 °F - 23.0 °F 30% 30.01 in 10.0 mi South 24.2 mph 29.9 mph N/A   Mostly Cloudy
3:35 PM 53.6 °F - 23.0 °F 30% 30.01 in 10.0 mi South 15.0 mph 20.7 mph N/A   Mostly Cloudy
3:55 PM 53.6 °F - 23.0 °F 30% 30.02 in 10.0 mi SSW 11.5 mph 16.1 mph N/A   Mostly Cloudy
4:35 PM 51.8 °F - 23.0 °F 33% 30.02 in 10.0 mi South 17.3 mph 23.0 mph N/A   Overcast
4:55 PM 50.0 °F - 23.0 °F 35% 30.02 in 10.0 mi South 13.8 mph 18.4 mph N/A   Mostly Cloudy
5:15 PM 50.0 °F - 23.0 °F 35% 30.01 in 10.0 mi South 13.8 mph - N/A   Mostly Cloudy
5:35 PM 48.2 °F - 24.8 °F 40% 30.02 in 10.0 mi South 15.0 mph 20.7 mph N/A   Partly Cloudy
5:55 PM 46.4 °F 41.9 °F 24.8 °F 43% 30.03 in 10.0 mi South 9.2 mph - N/A   Scattered Clouds
6:15 PM 44.6 °F 39.7 °F 24.8 °F 46% 30.03 in 10.0 mi South 9.2 mph - N/A   Partly Cloudy
6:35 PM 42.8 °F 37.5 °F 24.8 °F 49% 30.04 in 10.0 mi South 9.2 mph - N/A   Clear
6:55 PM 41.0 °F 34.7 °F 24.8 °F 53% 30.04 in 10.0 mi South 10.4 mph - N/A   Clear
7:15 PM 42.8 °F 36.6 °F 24.8 °F 49% 30.03 in 10.0 mi South 11.5 mph - N/A   Clear
7:35 PM 44.6 °F 38.1 °F 24.8 °F 46% 30.03 in 10.0 mi South 13.8 mph - N/A   Clear
7:55 PM 46.4 °F 40.7 °F 24.8 °F 43% 30.04 in 10.0 mi South 12.7 mph 21.9 mph N/A   Clear
8:15 PM 44.6 °F 41.4 °F 24.8 °F 46% 30.05 in 10.0 mi SSW 5.8 mph - N/A   Clear
8:35 PM 41.0 °F 34.7 °F 24.8 °F 53% 30.07 in 10.0 mi SSW 10.4 mph - N/A   Clear
8:55 PM 41.0 °F 39.0 °F 23.0 °F 49% 30.09 in 10.0 mi NE 3.5 mph - N/A   Clear
9:15 PM 39.2 °F 35.9 °F 23.0 °F 52% 30.10 in 10.0 mi North 4.6 mph - N/A   Clear
9:35 PM 39.2 °F - 23.0 °F 52% 30.10 in 10.0 mi Calm Calm - N/A   Clear
10:15 PM 37.4 °F 34.9 °F 23.0 °F 56% 30.10 in 10.0 mi NNW 3.5 mph - N/A   Clear
10:35 PM 37.4 °F 32.8 °F 23.0 °F 56% 30.11 in 10.0 mi West 5.8 mph - N/A   Clear
10:55 PM 39.2 °F 35.9 °F 23.0 °F 52% 30.11 in 10.0 mi WNW 4.6 mph - N/A   Clear
11:15 PM 41.0 °F 38.0 °F 24.8 °F 53% 30.12 in 10.0 mi West 4.6 mph - N/A   Clear
11:35 PM 33.8 °F - 21.2 °F 60% 30.11 in 10.0 mi Calm Calm - N/A   Clear
11:55 PM 32.0 °F - 21.2 °F 64% 30.10 in 10.0 mi Calm Calm - N/A   Clear